When you browse on this site, cookies collect data to enhance your experience and personalize the content and advertising you see.
Visit our Privacy Policy to learn more. By continuing to use the site, you agree to this use of cookies and data.
  • In Schweiz
  • Länderverzeichnis
  • Für 7 Tage
  • Wassertemperatur
  • Wetterkarte
  • Widgets
  • user-avatar
    Anmelden

    Stündliche Wetter Lubino

    Heute, 12 November, Dienstag

    Zeit Temperatur Niederschläge Wind Luftdruck Luftfeuchtigkeit
    00:00 +5°C° 0 mm 4 m/S 742 mmHg 85%
    01:00 +5°C° 0 mm 4 m/S 743 mmHg 85%
    02:00 +5°C° 0 mm 3 m/S 744 mmHg 85%
    03:00 +4°C° 0 mm 3 m/S 744 mmHg 85%
    04:00 +4°C° 0 mm 3 m/S 745 mmHg 86%
    05:00 +4°C° 0 mm 3 m/S 745 mmHg 86%
    06:00 +3°C° 0 mm 3 m/S 746 mmHg 87%
    07:00 +4°C° 0 mm 2 m/S 747 mmHg 88%
    08:00 +4°C° 0 mm 2 m/S 747 mmHg 90%
    09:00 +4°C° 0 mm 2 m/S 748 mmHg 86%
    10:00 +5°C° 0 mm 2 m/S 748 mmHg 82%
    11:00 +7°C° 0 mm 1 m/S 748 mmHg 79%
    12:00 +7°C° 0 mm 1 m/S 749 mmHg 77%
    13:00 +7°C° 0 mm 1 m/S 749 mmHg 75%
    14:00 +6°C° 0 mm 2 m/S 750 mmHg 73%
    15:00 +5°C° 0 mm 2 m/S 750 mmHg 77%
    16:00 +5°C° 0 mm 1 m/S 750 mmHg 81%
    17:00 +4°C° 0 mm 1 m/S 749 mmHg 85%
    18:00 +3°C° 0 mm 2 m/S 750 mmHg 86%
    19:00 +3°C° 0 mm 2 m/S 750 mmHg 87%
    20:00 +2°C° 0 mm 3 m/S 750 mmHg 88%
    21:00 +2°C° 0 mm 3 m/S 750 mmHg 86%
    22:00 +2°C° 0 mm 3 m/S 750 mmHg 85%
    23:00 +1°C° 0 mm 4 m/S 750 mmHg 84%

    Morgen, 13 November, Mittwoch

    Zeit Temperatur Niederschläge Wind Luftdruck Luftfeuchtigkeit
    00:00 +1°C° 0 mm 4 m/S 750 mmHg 83%
    01:00 +3°C° 0 mm 4 m/S 750 mmHg 82%
    02:00 +2°C° 0 mm 5 m/S 750 mmHg 81%
    03:00 +2°C° 0 mm 5 m/S 750 mmHg 80%
    04:00 +2°C° 0 mm 5 m/S 749 mmHg 80%
    05:00 +2°C° 0 mm 6 m/S 749 mmHg 80%
    06:00 +2°C° 0 mm 6 m/S 749 mmHg 80%
    07:00 +2°C° 0 mm 6 m/S 749 mmHg 80%
    08:00 +2°C° 0 mm 6 m/S 749 mmHg 80%
    09:00 +3°C° 0 mm 6 m/S 748 mmHg 79%
    10:00 +4°C° 0 mm 6 m/S 748 mmHg 77%
    11:00 +7°C° 0 mm 6 m/S 748 mmHg 75%
    12:00 +7°C° 0 mm 6 m/S 748 mmHg 75%
    13:00 +7°C° 0 mm 6 m/S 748 mmHg 75%
    14:00 +7°C° 0 mm 6 m/S 748 mmHg 75%
    15:00 +7°C° 0 mm 6 m/S 748 mmHg 77%
    16:00 +7°C° 0 mm 6 m/S 747 mmHg 79%
    17:00 +5°C° 0 mm 6 m/S 747 mmHg 80%
    18:00 +5°C° 0 mm 6 m/S 747 mmHg 81%
    19:00 +5°C° 0 mm 6 m/S 747 mmHg 82%
    20:00 +5°C° 0 mm 7 m/S 747 mmHg 83%
    21:00 +5°C° 0 mm 6 m/S 747 mmHg 85%
    22:00 +5°C° 0 mm 6 m/S 747 mmHg 86%
    23:00 +5°C° 0 mm 6 m/S 747 mmHg 88%

    übermorgen, 14 November, Donnerstag

    Zeit Temperatur Niederschläge Wind Luftdruck Luftfeuchtigkeit
    00:00 +5°C° 0 mm 6 m/S 747 mmHg 89%
    01:00 +5°C° 0 mm 6 m/S 747 mmHg 89%
    02:00 +4°C° 0 mm 6 m/S 747 mmHg 90%
    03:00 +4°C° 0 mm 6 m/S 747 mmHg 90%
    04:00 +4°C° 0 mm 6 m/S 747 mmHg 90%
    05:00 +4°C° 0 mm 6 m/S 747 mmHg 90%
    06:00 +4°C° 0 mm 6 m/S 747 mmHg 90%
    07:00 +3°C° 0 mm 6 m/S 747 mmHg 89%
    08:00 +3°C° 0 mm 6 m/S 748 mmHg 89%
    09:00 +4°C° 0 mm 6 m/S 748 mmHg 84%
    10:00 +5°C° 0 mm 6 m/S 748 mmHg 80%
    11:00 +7°C° 0 mm 6 m/S 748 mmHg 75%
    12:00 +7°C° 0 mm 6 m/S 748 mmHg 74%
    13:00 +7°C° 0 mm 5 m/S 749 mmHg 73%
    14:00 +7°C° 0 mm 5 m/S 749 mmHg 73%
    15:00 +6°C° 0 mm 5 m/S 749 mmHg 74%
    16:00 +6°C° 0 mm 5 m/S 749 mmHg 75%
    17:00 +5°C° 0 mm 5 m/S 748 mmHg 76%
    18:00 +3°C° 0 mm 5 m/S 749 mmHg 75%
    19:00 +3°C° 0 mm 5 m/S 749 mmHg 75%
    20:00 +2°C° 0 mm 5 m/S 749 mmHg 75%
    21:00 +2°C° 0 mm 5 m/S 749 mmHg 75%
    22:00 +2°C° 0 mm 5 m/S 750 mmHg 75%
    23:00 +1°C° 0 mm 5 m/S 750 mmHg 74%

    15 November, Freitag

    Zeit Temperatur Niederschläge Wind Luftdruck Luftfeuchtigkeit
    00:00 +1°C° 0 mm 4 m/S 750 mmHg 76%
    01:00 +1°C° 0 mm 4 m/S 750 mmHg 78%
    02:00 0°C° 0 mm 4 m/S 750 mmHg 79%
    03:00 0°C° 0 mm 4 m/S 750 mmHg 81%
    04:00 0°C° 0 mm 4 m/S 750 mmHg 82%
    05:00 0°C° 0 mm 4 m/S 750 mmHg 83%
    06:00 0°C° 0 mm 4 m/S 750 mmHg 84%
    07:00 0°C° 0 mm 4 m/S 750 mmHg 84%
    08:00 0°C° 0 mm 4 m/S 750 mmHg 84%
    09:00 0°C° 0 mm 4 m/S 750 mmHg 82%
    10:00 +1°C° 0 mm 4 m/S 750 mmHg 79%
    11:00 +2°C° 0 mm 5 m/S 750 mmHg 76%
    12:00 +3°C° 0 mm 4 m/S 750 mmHg 76%
    13:00 +3°C° 0 mm 4 m/S 750 mmHg 76%
    14:00 +3°C° 0 mm 4 m/S 750 mmHg 76%
    15:00 +3°C° 0 mm 3 m/S 750 mmHg 79%
    16:00 +2°C° 0 mm 3 m/S 750 mmHg 83%
    17:00 +1°C° 0 mm 3 m/S 750 mmHg 87%
    18:00 +1°C° 0 mm 3 m/S 750 mmHg 87%
    19:00 +1°C° 0 mm 3 m/S 750 mmHg 87%
    20:00 +1°C° 0 mm 3 m/S 750 mmHg 87%
    21:00 +1°C° 0 mm 3 m/S 750 mmHg 87%
    22:00 +1°C° 0 mm 3 m/S 750 mmHg 86%
    23:00 +1°C° 0 mm 3 m/S 750 mmHg 86%

    16 November, Samstag

    Zeit Temperatur Niederschläge Wind Luftdruck Luftfeuchtigkeit
    00:00 +1°C° 0 mm 3 m/S 750 mmHg 87%
    01:00 +1°C° 0 mm 3 m/S 750 mmHg 87%
    02:00 +1°C° 0 mm 3 m/S 750 mmHg 87%
    03:00 0°C° 0 mm 3 m/S 750 mmHg 89%
    04:00 0°C° 0 mm 3 m/S 750 mmHg 90%
    05:00 0°C° 0 mm 3 m/S 750 mmHg 91%
    06:00 0°C° 0 mm 3 m/S 750 mmHg 91%
    07:00 0°C° 0 mm 3 m/S 751 mmHg 92%
    08:00 0°C° 0 mm 3 m/S 751 mmHg 92%
    09:00 +1°C° 0 mm 3 m/S 751 mmHg 88%
    10:00 +2°C° 0 mm 3 m/S 751 mmHg 84%
    11:00 +3°C° 0 mm 3 m/S 752 mmHg 80%
    12:00 +3°C° 0 mm 3 m/S 752 mmHg 80%
    13:00 +4°C° 0 mm 3 m/S 752 mmHg 79%
    14:00 +4°C° 0 mm 3 m/S 752 mmHg 79%
    15:00 +3°C° 0 mm 3 m/S 752 mmHg 82%
    16:00 +4°C° 0 mm 2 m/S 752 mmHg 86%
    17:00 +3°C° 0 mm 2 m/S 752 mmHg 90%
    18:00 +3°C° 0 mm 2 m/S 752 mmHg 90%
    19:00 +3°C° 0 mm 2 m/S 752 mmHg 91%
    20:00 +2°C° 0 mm 3 m/S 752 mmHg 91%
    21:00 +2°C° 0 mm 2 m/S 752 mmHg 91%
    22:00 +2°C° 0 mm 2 m/S 753 mmHg 92%
    23:00 +2°C° 0 mm 2 m/S 753 mmHg 92%

    17 November, Sonntag

    Zeit Temperatur Niederschläge Wind Luftdruck Luftfeuchtigkeit
    00:00 +2°C° 0 mm 2 m/S 753 mmHg 92%
    01:00 +2°C° 0 mm 2 m/S 753 mmHg 92%
    02:00 +2°C° 0 mm 2 m/S 753 mmHg 92%
    03:00 +2°C° 0 mm 2 m/S 753 mmHg 92%
    04:00 +1°C° 0 mm 2 m/S 753 mmHg 92%
    05:00 +1°C° 0 mm 2 m/S 753 mmHg 92%
    06:00 +1°C° 0 mm 2 m/S 753 mmHg 91%
    07:00 +1°C° 0 mm 2 m/S 754 mmHg 91%
    08:00 +1°C° 0 mm 2 m/S 754 mmHg 91%
    09:00 +2°C° 0 mm 2 m/S 754 mmHg 87%
    10:00 +1°C° 0 mm 3 m/S 754 mmHg 83%
    11:00 +2°C° 0 mm 3 m/S 754 mmHg 80%
    12:00 +2°C° 0 mm 3 m/S 754 mmHg 79%
    13:00 +2°C° 0 mm 3 m/S 754 mmHg 79%
    14:00 +3°C° 0 mm 3 m/S 754 mmHg 79%
    15:00 +2°C° 0 mm 3 m/S 753 mmHg 83%
    16:00 +2°C° 0 mm 2 m/S 753 mmHg 86%
    17:00 +2°C° 0 mm 2 m/S 753 mmHg 89%
    18:00 +1°C° 0 mm 2 m/S 753 mmHg 90%
    19:00 +1°C° 0 mm 2 m/S 753 mmHg 90%
    20:00 +1°C° 0 mm 2 m/S 753 mmHg 90%
    21:00 +1°C° 0 mm 2 m/S 753 mmHg 90%
    22:00 0°C° 0 mm 3 m/S 753 mmHg 89%
    23:00 -1°C° 0 mm 3 m/S 753 mmHg 89%
    Mehr zeigen